Tracking 19832 objects as of 26-Aug-2019
HD Live streaming from Space Station
objects crossing your sky now

SOMP-2


SOMP-2 is no longer on orbit
SOMP-2 is classified as:


NORAD ID: 42701
Int'l Code: 1998-067LJ
Perigee: N/A
Apogee: N/A
Inclination: N/A
Period: N/A
Semi major axis: N/A
RCS: N/A
Launch date: November 20, 1998
Source: Germany (GER)
Launch site: TYURATAM MISSILE AND SPACE COMPLEX (TTMTR)
Decay date: 2019-03-19

Uplink (MHz):
Downlink (MHz): 437.405
Beacon (MHz):
Mode: 9600bps GMSK
Call sign:
Status: Inactive

aabbcc
Your satellite tracking list
Your tracking list is empty




NASA's NSSDC Master Catalog

Two Line Element Set (TLE):
1 42701U 98067LJ  19078.69468843  .10049912  12420-4  43736-3 0  9992
2 42701  51.6203   2.9892 0006383 231.0998 128.9461 16.43161447105627
Source of the keplerian elements: AMSAT